����������;��������(kVARh)
2017-07-24 00:00;3,65
2017-07-24 00:15;2,9
2017-07-24 00:30;1,2
2017-07-24 00:45;4,8
2017-07-24 01:00;7,55
2017-07-24 01:15;7,65
2017-07-24 01:30;4,9
2017-07-24 01:45;8,35
2017-07-24 02:00;9,25
2017-07-24 02:15;8,75
2017-07-24 02:30;8,65
2017-07-24 02:45;9,05
2017-07-24 03:00;8,95
2017-07-24 03:15;8,5
2017-07-24 03:30;10,45
2017-07-24 03:45;9,4
2017-07-24 04:00;10,9
2017-07-24 04:15;9,65
2017-07-24 04:30;10,15
2017-07-24 04:45;9,3
2017-07-24 05:00;9
2017-07-24 05:15;8,05
2017-07-24 05:30;9,2
2017-07-24 05:45;8,4
2017-07-24 06:00;7,55
2017-07-24 06:15;9,7
2017-07-24 06:30;8,85
2017-07-24 06:45;10,75
2017-07-24 07:00;12,15
2017-07-24 07:15;19,4
2017-07-24 07:30;49,7
2017-07-24 07:45;35,8
2017-07-24 08:00;27,65
2017-07-24 08:15;27,8
2017-07-24 08:30;25,45
2017-07-24 08:45;29,15
2017-07-24 09:00;25,55
2017-07-24 09:15;45,3
2017-07-24 09:30;42,7
2017-07-24 09:45;56,05
2017-07-24 10:00;61,25
2017-07-24 10:15;57,65
2017-07-24 10:30;57,7
2017-07-24 10:45;58,2
2017-07-24 11:00;62,8
2017-07-24 11:15;63,05
2017-07-24 11:30;66,2
2017-07-24 11:45;66,55
2017-07-24 12:00;78,35
2017-07-24 12:15;77
2017-07-24 12:30;78,7
2017-07-24 12:45;91,35
2017-07-24 13:00;83,55
2017-07-24 13:15;86,15
2017-07-24 13:30;87,95
2017-07-24 13:45;82,9
2017-07-24 14:00;87,05
2017-07-24 14:15;77,6
2017-07-24 14:30;74,1
2017-07-24 14:45;71,7
2017-07-24 15:00;61,55
2017-07-24 15:15;54,6
2017-07-24 15:30;49,4
2017-07-24 15:45;45,6
2017-07-24 16:00;43,8
2017-07-24 16:15;42,95
2017-07-24 16:30;42,15
2017-07-24 16:45;39,85
2017-07-24 17:00;39,95
2017-07-24 17:15;41,8
2017-07-24 17:30;41,15
2017-07-24 17:45;39,3
2017-07-24 18:00;37,35
2017-07-24 18:15;36,9
2017-07-24 18:30;36,3
2017-07-24 18:45;36,25
2017-07-24 19:00;35,95
2017-07-24 19:15;34,65
2017-07-24 19:30;32,65
2017-07-24 19:45;34,05
2017-07-24 20:00;31,15
2017-07-24 20:15;30,35
2017-07-24 20:30;32,45
2017-07-24 20:45;31,8
2017-07-24 21:00;27,2
2017-07-24 21:15;29
2017-07-24 21:30;27,2
2017-07-24 21:45;20,65
2017-07-24 22:00;18,35
2017-07-24 22:15;22,2
2017-07-24 22:30;21,8
2017-07-24 22:45;23,6
2017-07-24 23:00;25,1
2017-07-24 23:15;23,5
2017-07-24 23:30;24,3
2017-07-24 23:45;23,4
2017-07-25 00:00;23,1
2017-07-25 00:15;25,5
2017-07-25 00:30;24,6
2017-07-25 00:45;16,65
2017-07-25 01:00;18,75
2017-07-25 01:15;18,2
2017-07-25 01:30;19,3
2017-07-25 01:45;19,1
2017-07-25 02:00;18,5
2017-07-25 02:15;17,5
2017-07-25 02:30;19,8
2017-07-25 02:45;19,5
2017-07-25 03:00;14,65
2017-07-25 03:15;10,1
2017-07-25 03:30;9,55
2017-07-25 03:45;9,55
2017-07-25 04:00;9,55
2017-07-25 04:15;9,7
2017-07-25 04:30;9,05
2017-07-25 04:45;8,85
2017-07-25 05:00;10,2
2017-07-25 05:15;9,85
2017-07-25 05:30;11
2017-07-25 05:45;9,65
2017-07-25 06:00;10,9
2017-07-25 06:15;9,4
2017-07-25 06:30;14,7
2017-07-25 06:45;20,3
2017-07-25 07:00;16,55
2017-07-25 07:15;22,4
2017-07-25 07:30;59,35
2017-07-25 07:45;47,9
2017-07-25 08:00;31,4
2017-07-25 08:15;34,65
2017-07-25 08:30;34
2017-07-25 08:45;35,1
2017-07-25 09:00;43,55
2017-07-25 09:15;48,9
2017-07-25 09:30;47,05
2017-07-25 09:45;46
2017-07-25 10:00;51,8
2017-07-25 10:15;71,35
2017-07-25 10:30;80,2
2017-07-25 10:45;73,2
2017-07-25 11:00;71,15
2017-07-25 11:15;84,9
2017-07-25 11:30;86
2017-07-25 11:45;83,6
2017-07-25 12:00;79,95
2017-07-25 12:15;80,25
2017-07-25 12:30;79,45
2017-07-25 12:45;79
2017-07-25 13:00;79,55
2017-07-25 13:15;111,9
2017-07-25 13:30;98,85
2017-07-25 13:45;86,3
2017-07-25 14:00;87,6
2017-07-25 14:15;81,4
2017-07-25 14:30;88,4
2017-07-25 14:45;75,7
2017-07-25 15:00;71
2017-07-25 15:15;66,05
2017-07-25 15:30;63,75
2017-07-25 15:45;61,45
2017-07-25 16:00;57,55
2017-07-25 16:15;54,65
2017-07-25 16:30;51,05
2017-07-25 16:45;51,8
2017-07-25 17:00;46,95
2017-07-25 17:15;40,95
2017-07-25 17:30;41,05
2017-07-25 17:45;41,45
2017-07-25 18:00;38,5
2017-07-25 18:15;37,5
2017-07-25 18:30;36,7
2017-07-25 18:45;38,5
2017-07-25 19:00;37,3
2017-07-25 19:15;33,3
2017-07-25 19:30;33,25
2017-07-25 19:45;33,05
2017-07-25 20:00;30,5
2017-07-25 20:15;30,75
2017-07-25 20:30;31,25
2017-07-25 20:45;31,05
2017-07-25 21:00;29,85
2017-07-25 21:15;31,15
2017-07-25 21:30;32,45
2017-07-25 21:45;29,7
2017-07-25 22:00;31,25
2017-07-25 22:15;35,75
2017-07-25 22:30;29,25
2017-07-25 22:45;29,05
2017-07-25 23:00;30,45
2017-07-25 23:15;25,65
2017-07-25 23:30;23,3
2017-07-25 23:45;20
2017-07-26 00:00;14,8
2017-07-26 00:15;9,95
2017-07-26 00:30;10,15
2017-07-26 00:45;11,9
2017-07-26 01:00;11,3
2017-07-26 01:15;12
2017-07-26 01:30;9,35
2017-07-26 01:45;12,2
2017-07-26 02:00;10,45
2017-07-26 02:15;9,25
2017-07-26 02:30;5,15
2017-07-26 02:45;6,1
2017-07-26 03:00;3,25
2017-07-26 03:15;4,15
2017-07-26 03:30;3
2017-07-26 03:45;5,1
2017-07-26 04:00;4,85
2017-07-26 04:15;4,85
2017-07-26 04:30;3,95
2017-07-26 04:45;4,7
2017-07-26 05:00;2,95
2017-07-26 05:15;6,1
2017-07-26 05:30;4,8
2017-07-26 05:45;4,95
2017-07-26 06:00;4,25
2017-07-26 06:15;4,3
2017-07-26 06:30;9,75
2017-07-26 06:45;16,25
2017-07-26 07:00;11,85
2017-07-26 07:15;16,85
2017-07-26 07:30;64,6
2017-07-26 07:45;59,05
2017-07-26 08:00;48,75
2017-07-26 08:15;50,85
2017-07-26 08:30;48,9
2017-07-26 08:45;53,7
2017-07-26 09:00;50,8
2017-07-26 09:15;61,95
2017-07-26 09:30;54,05
2017-07-26 09:45;59,2
2017-07-26 10:00;72,05
2017-07-26 10:15;69,7
2017-07-26 10:30;105
2017-07-26 10:45;99,3
2017-07-26 11:00;82,3
2017-07-26 11:15;89,8
2017-07-26 11:30;92,9
2017-07-26 11:45;96,05
2017-07-26 12:00;99,95
2017-07-26 12:15;103,2
2017-07-26 12:30;102,75
2017-07-26 12:45;92,95
2017-07-26 13:00;89,85
2017-07-26 13:15;89,45
2017-07-26 13:30;88,65
2017-07-26 13:45;84,9
2017-07-26 14:00;84,15
2017-07-26 14:15;84,1
2017-07-26 14:30;85,85
2017-07-26 14:45;80,85
2017-07-26 15:00;77
2017-07-26 15:15;70,8
2017-07-26 15:30;68,75
2017-07-26 15:45;62,1
2017-07-26 16:00;60,15
2017-07-26 16:15;60,6
2017-07-26 16:30;59,8
2017-07-26 16:45;58,75
2017-07-26 17:00;56,35
2017-07-26 17:15;50
2017-07-26 17:30;49,65
2017-07-26 17:45;49,7
2017-07-26 18:00;48,55
2017-07-26 18:15;46,7
2017-07-26 18:30;46,3
2017-07-26 18:45;47
2017-07-26 19:00;44,05
2017-07-26 19:15;37,95
2017-07-26 19:30;39,3
2017-07-26 19:45;39,05
2017-07-26 20:00;37,35
2017-07-26 20:15;34,05
2017-07-26 20:30;36,4
2017-07-26 20:45;37,9
2017-07-26 21:00;30,55
2017-07-26 21:15;25,85
2017-07-26 21:30;26,3
2017-07-26 21:45;24,75
2017-07-26 22:00;21,9
2017-07-26 22:15;23,2
2017-07-26 22:30;21,7
2017-07-26 22:45;19,9
2017-07-26 23:00;12,85
2017-07-26 23:15;11,25
2017-07-26 23:30;10,8
2017-07-26 23:45;13,15
2017-07-27 00:00;12
2017-07-27 00:15;14,1
2017-07-27 00:30;14,05
2017-07-27 00:45;13,45
2017-07-27 01:00;10,25
2017-07-27 01:15;8,75
2017-07-27 01:30;10,55
2017-07-27 01:45;9,35
2017-07-27 02:00;9,15
2017-07-27 02:15;8,1
2017-07-27 02:30;8
2017-07-27 02:45;9,2
2017-07-27 03:00;8
2017-07-27 03:15;6,95
2017-07-27 03:30;8,1
2017-07-27 03:45;7,15
2017-07-27 04:00;7,9
2017-07-27 04:15;7,65
2017-07-27 04:30;7,45
2017-07-27 04:45;5,9
2017-07-27 05:00;7,35
2017-07-27 05:15;6,85
2017-07-27 05:30;5,9
2017-07-27 05:45;6,55
2017-07-27 06:00;7,45
2017-07-27 06:15;6,55
2017-07-27 06:30;14,85
2017-07-27 06:45;17,9
2017-07-27 07:00;13,05
2017-07-27 07:15;16,65
2017-07-27 07:30;46,85
2017-07-27 07:45;44,15
2017-07-27 08:00;41,2
2017-07-27 08:15;43,4
2017-07-27 08:30;46,75
2017-07-27 08:45;44,7
2017-07-27 09:00;52,75
2017-07-27 09:15;54,7
2017-07-27 09:30;49,6
2017-07-27 09:45;60,75
2017-07-27 10:00;63,1
2017-07-27 10:15;69,65
2017-07-27 10:30;76,3
2017-07-27 10:45;74,5
2017-07-27 11:00;75,9
2017-07-27 11:15;76,45
2017-07-27 11:30;77,15
2017-07-27 11:45;78,15
2017-07-27 12:00;79,85
2017-07-27 12:15;81,25
2017-07-27 12:30;85,7
2017-07-27 12:45;87,2
2017-07-27 13:00;85,85
2017-07-27 13:15;88,95
2017-07-27 13:30;79,95
2017-07-27 13:45;90,5
2017-07-27 14:00;80
2017-07-27 14:15;76,1
2017-07-27 14:30;85,3
2017-07-27 14:45;72
2017-07-27 15:00;68,9
2017-07-27 15:15;64,55
2017-07-27 15:30;61,1
2017-07-27 15:45;56,5
2017-07-27 16:00;54,25
2017-07-27 16:15;54,45
2017-07-27 16:30;49,65
2017-07-27 16:45;51,35
2017-07-27 17:00;51,1
2017-07-27 17:15;44,6
2017-07-27 17:30;43,3
2017-07-27 17:45;41,75
2017-07-27 18:00;43,1
2017-07-27 18:15;40,4
2017-07-27 18:30;39,05
2017-07-27 18:45;38,95
2017-07-27 19:00;38,5
2017-07-27 19:15;36,25
2017-07-27 19:30;34,85
2017-07-27 19:45;36,2
2017-07-27 20:00;36,3
2017-07-27 20:15;33
2017-07-27 20:30;33,2
2017-07-27 20:45;33,95
2017-07-27 21:00;36,25
2017-07-27 21:15;40,1
2017-07-27 21:30;41,95
2017-07-27 21:45;40,7
2017-07-27 22:00;39,85
2017-07-27 22:15;42,35
2017-07-27 22:30;42,85
2017-07-27 22:45;41,7
2017-07-27 23:00;37,8
2017-07-27 23:15;30,65
2017-07-27 23:30;29,9
2017-07-27 23:45;28,95
2017-07-28 00:00;22,95
2017-07-28 00:15;22,35
2017-07-28 00:30;16,65
2017-07-28 00:45;16,4
2017-07-28 01:00;11,7
2017-07-28 01:15;4,35
2017-07-28 01:30;3,4
2017-07-28 01:45;3,1
2017-07-28 02:00;3,05
2017-07-28 02:15;2,3
2017-07-28 02:30;3,7
2017-07-28 02:45;3,35
2017-07-28 03:00;3,65
2017-07-28 03:15;3,7
2017-07-28 03:30;3,6
2017-07-28 03:45;4,65
2017-07-28 04:00;5,1
2017-07-28 04:15;4,45
2017-07-28 04:30;4,75
2017-07-28 04:45;4,8
2017-07-28 05:00;5,5
2017-07-28 05:15;6,3
2017-07-28 05:30;4,5
2017-07-28 05:45;4,8
2017-07-28 06:00;4,9
2017-07-28 06:15;4,3
2017-07-28 06:30;4,2
2017-07-28 06:45;14,9
2017-07-28 07:00;20,5
2017-07-28 07:15;22,65
2017-07-28 07:30;47,95
2017-07-28 07:45;38,4
2017-07-28 08:00;25,25
2017-07-28 08:15;27,35
2017-07-28 08:30;36,5
2017-07-28 08:45;40,75
2017-07-28 09:00;45,5
2017-07-28 09:15;45,55
2017-07-28 09:30;52
2017-07-28 09:45;56,1
2017-07-28 10:00;54,3
2017-07-28 10:15;52,5
2017-07-28 10:30;61,3
2017-07-28 10:45;57,75
2017-07-28 11:00;58,75
2017-07-28 11:15;71,6
2017-07-28 11:30;68
2017-07-28 11:45;74,65
2017-07-28 12:00;67,85
2017-07-28 12:15;63,65
2017-07-28 12:30;74,4
2017-07-28 12:45;68,1
2017-07-28 13:00;66,15
2017-07-28 13:15;61,75
2017-07-28 13:30;61,2
2017-07-28 13:45;66,35
2017-07-28 14:00;64,15
2017-07-28 14:15;63,75
2017-07-28 14:30;60,9
2017-07-28 14:45;60,4
2017-07-28 15:00;58,05
2017-07-28 15:15;56,75
2017-07-28 15:30;53,55
2017-07-28 15:45;50,95
2017-07-28 16:00;49,45
2017-07-28 16:15;49,7
2017-07-28 16:30;47,7
2017-07-28 16:45;45,3
2017-07-28 17:00;44,2
2017-07-28 17:15;43,45
2017-07-28 17:30;43,15
2017-07-28 17:45;39,85
2017-07-28 18:00;39,8
2017-07-28 18:15;37,25
2017-07-28 18:30;37,25
2017-07-28 18:45;33,35
2017-07-28 19:00;31,65
2017-07-28 19:15;31
2017-07-28 19:30;29,9
2017-07-28 19:45;31,55
2017-07-28 20:00;29,95
2017-07-28 20:15;31,1
2017-07-28 20:30;30,6
2017-07-28 20:45;30,5
2017-07-28 21:00;28,2
2017-07-28 21:15;31,1
2017-07-28 21:30;31,3
2017-07-28 21:45;31,4
2017-07-28 22:00;28
2017-07-28 22:15;30,4
2017-07-28 22:30;24,5
2017-07-28 22:45;23
2017-07-28 23:00;20,8
2017-07-28 23:15;14,9
2017-07-28 23:30;15,2
2017-07-28 23:45;17,05
2017-07-29 00:00;16,75
2017-07-29 00:15;18,3
2017-07-29 00:30;17,1
2017-07-29 00:45;17,55
2017-07-29 01:00;21,15
2017-07-29 01:15;16,3
2017-07-29 01:30;14,15
2017-07-29 01:45;13,3
2017-07-29 02:00;14,75
2017-07-29 02:15;13,15
2017-07-29 02:30;14,55
2017-07-29 02:45;14
2017-07-29 03:00;15,25
2017-07-29 03:15;17,95
2017-07-29 03:30;23,25
2017-07-29 03:45;22,45
2017-07-29 04:00;24,8
2017-07-29 04:15;24,8
2017-07-29 04:30;24,55
2017-07-29 04:45;24,7
2017-07-29 05:00;24,85
2017-07-29 05:15;25,9
2017-07-29 05:30;25,15
2017-07-29 05:45;23,9
2017-07-29 06:00;25,55
2017-07-29 06:15;25,75
2017-07-29 06:30;12,15
2017-07-29 06:45;12,6
2017-07-29 07:00;11,25
2017-07-29 07:15;11,3
2017-07-29 07:30;10,15
2017-07-29 07:45;8,8
2017-07-29 08:00;7,75
2017-07-29 08:15;5,65
2017-07-29 08:30;6,3
2017-07-29 08:45;8,55
2017-07-29 09:00;9,9
2017-07-29 09:15;7,45
2017-07-29 09:30;10,9
2017-07-29 09:45;10,3
2017-07-29 10:00;10,15
2017-07-29 10:15;8,3
2017-07-29 10:30;7
2017-07-29 10:45;7,65
2017-07-29 11:00;7,2
2017-07-29 11:15;7,35
2017-07-29 11:30;6,55
2017-07-29 11:45;10,9
2017-07-29 12:00;11,2
2017-07-29 12:15;12,05
2017-07-29 12:30;11,15
2017-07-29 12:45;10,35
2017-07-29 13:00;11,75
2017-07-29 13:15;9,25
2017-07-29 13:30;10,65
2017-07-29 13:45;10,1
2017-07-29 14:00;10,7
2017-07-29 14:15;11,4
2017-07-29 14:30;11,45
2017-07-29 14:45;11,75
2017-07-29 15:00;11,6
2017-07-29 15:15;12,2
2017-07-29 15:30;11
2017-07-29 15:45;12,45
2017-07-29 16:00;10,65
2017-07-29 16:15;13,75
2017-07-29 16:30;11,85
2017-07-29 16:45;13,9
2017-07-29 17:00;14,65
2017-07-29 17:15;16,05
2017-07-29 17:30;15,2
2017-07-29 17:45;17,25
2017-07-29 18:00;15,65
2017-07-29 18:15;16,1
2017-07-29 18:30;14,15
2017-07-29 18:45;16,65
2017-07-29 19:00;17,95
2017-07-29 19:15;17,3
2017-07-29 19:30;18,4
2017-07-29 19:45;16,6
2017-07-29 20:00;16,75
2017-07-29 20:15;17,2
2017-07-29 20:30;18,15
2017-07-29 20:45;18,75
2017-07-29 21:00;17,8
2017-07-29 21:15;15,95
2017-07-29 21:30;15,95
2017-07-29 21:45;15,4
2017-07-29 22:00;15,25
2017-07-29 22:15;18,85
2017-07-29 22:30;18,7
2017-07-29 22:45;19,8
2017-07-29 23:00;8,85
2017-07-29 23:15;5,45
2017-07-29 23:30;4,65
2017-07-29 23:45;6,45
2017-07-30 00:00;6,05
2017-07-30 00:15;7,1
2017-07-30 00:30;7,6
2017-07-30 00:45;3,45
2017-07-30 01:00;0,1
2017-07-30 01:15;0,5
2017-07-30 01:30;0,85
2017-07-30 01:45;1,75
2017-07-30 02:00;2,55
2017-07-30 02:15;0,95
2017-07-30 02:30;2,1
2017-07-30 02:45;2,05
2017-07-30 03:00;2,7
2017-07-30 03:15;2,45
2017-07-30 03:30;3,65
2017-07-30 03:45;2,45
2017-07-30 04:00;4,1
2017-07-30 04:15;3,7
2017-07-30 04:30;4,15
2017-07-30 04:45;4,85
2017-07-30 05:00;3,7
2017-07-30 05:15;5,4
2017-07-30 05:30;4,65
2017-07-30 05:45;5,45
2017-07-30 06:00;3,4
2017-07-30 06:15;4,15
2017-07-30 06:30;2,4
2017-07-30 06:45;3,9
2017-07-30 07:00;2,9
2017-07-30 07:15;4,25
2017-07-30 07:30;4,15
2017-07-30 07:45;3,1
2017-07-30 08:00;3,05
2017-07-30 08:15;2,1
2017-07-30 08:30;1,75
2017-07-30 08:45;1,8
2017-07-30 09:00;0,6
2017-07-30 09:15;1,2
2017-07-30 09:30;3,8
2017-07-30 09:45;8,2
2017-07-30 10:00;7,45
2017-07-30 10:15;12,4
2017-07-30 10:30;12,6
2017-07-30 10:45;11,2
2017-07-30 11:00;12,4
2017-07-30 11:15;11,3
2017-07-30 11:30;11,1
2017-07-30 11:45;12,45
2017-07-30 12:00;12
2017-07-30 12:15;13,25
2017-07-30 12:30;14,1
2017-07-30 12:45;13,25
2017-07-30 13:00;12,45
2017-07-30 13:15;13,45
2017-07-30 13:30;13,6
2017-07-30 13:45;12,85
2017-07-30 14:00;13,4
2017-07-30 14:15;13,7
2017-07-30 14:30;13,3
2017-07-30 14:45;13,65
2017-07-30 15:00;12,7
2017-07-30 15:15;13,1
2017-07-30 15:30;14,55
2017-07-30 15:45;13,6
2017-07-30 16:00;14,2
2017-07-30 16:15;14,65
2017-07-30 16:30;14,95
2017-07-30 16:45;14,05
2017-07-30 17:00;14,35
2017-07-30 17:15;12,95
2017-07-30 17:30;11,8
2017-07-30 17:45;12,65
2017-07-30 18:00;10,3
2017-07-30 18:15;11,65
2017-07-30 18:30;11,45
2017-07-30 18:45;17,65
2017-07-30 19:00;16,15
2017-07-30 19:15;17,55
2017-07-30 19:30;17,85
2017-07-30 19:45;16,05
2017-07-30 20:00;17,4
2017-07-30 20:15;18,35
2017-07-30 20:30;16,05
2017-07-30 20:45;16,25
2017-07-30 21:00;13,55
2017-07-30 21:15;13,5
2017-07-30 21:30;13,05
2017-07-30 21:45;13,9
2017-07-30 22:00;15,6
2017-07-30 22:15;19,2
2017-07-30 22:30;20,45
2017-07-30 22:45;17,95
2017-07-30 23:00;9,9
2017-07-30 23:15;12,25
2017-07-30 23:30;9,05
2017-07-30 23:45;8,9

